This is the latest recevied weather packets stored in our database for station/object KY4OP-13. If no packets are shown the sender has not sent any weather packets the latest 10 day(s).
| Time | Temp. | Humidity | Pressure | Rain* | Wind** | Luminosity | Snow |
|---|---|---|---|---|---|---|---|
| 1777740674 | 13.89° C | 47% | 1016.1 hPa | 0 mm | - | - | - |
| 1777740370 | 13.33° C | 47% | 1016.1 hPa | 0 mm | - | - | - |
| 1777740067 | 12.78° C | 46% | 1016.1 hPa | 0 mm | - | - | - |
| 1777739763 | 13.33° C | 43% | 1016.2 hPa | 0 mm | - | - | - |
| 1777739460 | 12.78° C | 46% | 1016.2 hPa | 0 mm | - | - | - |
| 1777739156 | 12.22° C | 47% | 1016.1 hPa | 0 mm | - | - | - |
| 1777738854 | 12.22° C | 49% | 1016.3 hPa | 0 mm | - | - | - |
| 1777738550 | 12.78° C | 48% | 1016.4 hPa | 0 mm | - | - | - |
| 1777738248 | 13.33° C | 44% | 1016.5 hPa | 0 mm | - | - | - |
| 1777737946 | 12.78° C | 46% | 1016.6 hPa | 0 mm | - | - | - |
| 1777737644 | 12.78° C | 48% | 1016.5 hPa | 0 mm | - | - | - |
| 1777737343 | 12.22° C | 50% | 1016.6 hPa | 0 mm | - | - | - |
| 1777737039 | 12.22° C | 48% | 1016.5 hPa | 0 mm | - | - | - |
| 1777736735 | 12.22° C | 48% | 1016.5 hPa | 0 mm | - | - | - |
| 1777736107 | 11.67° C | 51% | 1016.7 hPa | 0 mm | - | - | - |
| 1777735804 | 12.22° C | 51% | 1016.6 hPa | 0 mm | - | - | - |
| 1777735501 | 12.22° C | 50% | 1016.6 hPa | 0 mm | - | - | - |
| 1777735199 | 12.22° C | 50% | 1016.6 hPa | 0 mm | - | - | - |
| 1777734896 | 12.22° C | 50% | 1016.5 hPa | 0 mm | - | - | - |
| 1777734593 | 11.67° C | 53% | 1016.5 hPa | 0 mm | - | - | - |
| 1777734290 | 11.67° C | 50% | 1016.8 hPa | 0 mm | - | - | - |
| 1777733986 | 11.67° C | 51% | 1016.8 hPa | 0 mm | - | - | - |
| 1777733683 | 11.11° C | 50% | 1016.7 hPa | 0 mm | - | - | - |
| 1777733379 | 11.67° C | 52% | 1016.7 hPa | 0 mm | - | - | - |
| 1777733076 | 11.11° C | 52% | 1016.7 hPa | 0 mm | - | - | - |
* Rain latest hour (hover to see other rain measurements)
** Current wind speed in m/s (hover to see current wind gust speed)